Regional Weather Roundup
Issued by NWS Sterling, VA

Home | Current Version | Previous Version | Graphics & Text | Print | Product List | Glossary On
Versions: 1 2 3 4 5 6 7 8 9 10 11 12 13 14 15 16 17 18 19 20 21 22 23 24 25 26 27
000
ASUS41 KLWX 231110
RWRLWX

REGIONAL WEATHER ROUNDUP
NATIONAL WEATHER SERVICE BALTIMORE MD/WASHINGTON DC
700 AM EDT WED APR 23 2014

Note: "FAIR" indicates few or no clouds below 12,000 feet
with no significant weather and/or obstructions to visibility.
 TC=TEMPERATURE CELSIUS

 * =Non NWS site. Station does not report precipitation (e.g. rain,
    snow, etc.), thunder, or fog.

DCZ001-MDZ009-015-VAZ040>042-051-053>054-231200-
WASHINGTON METRO

CITY           SKY/WX    TMP DP  RH WIND       PRES   REMARKS
WASHINGTON NAT PTCLDY    51  34  52 NW13G24   29.77R
DULLES         MOCLDY    48  33  56 NW6       29.78R
ANDREWS AFB    CLEAR     49  34  54 NW15G24   29.77R
FT BELVOIR     CLEAR     50  33  53 W15       29.78R
QUANTICO       PTCLDY    52  31  44 N8        29.80R
COLLEGE PARK*  CLEAR     50  34  53 NW8G18    29.77R
LEESBURG*      CLOUDY    48  37  66 NW10G21   29.79R
MANASSAS*      PTCLDY    48  34  57 NW12      29.78R
GAITHERSBURG*  PTCLDY    46  30  53 NW20G25   29.78R

$$

MDZ006>007-011-014-231200-
BALTIMORE METRO

CITY           SKY/WX    TMP DP  RH WIND       PRES   REMARKS
BWI AIRPORT    PTCLDY    48  35  60 W12       29.74R
MD SCIENCE CTR   N/A     50  35  56 MISG      29.75R
MARTIN STATE   MOCLDY    52  36  54 W13G21    29.74R
ANNAPOLIS      CLEAR     51  34  52 NW12G25   29.75R
FORT MEADE*    PTCLDY    46  32  57 W12G21    29.77R

$$

MDZ012-015-019>023-231200-
MARYLAND EASTERN SHORE

CITY           SKY/WX    TMP DP  RH WIND       PRES   REMARKS
OCEAN CITY     PTCLDY    51  34  52 N9G22     29.69R
SALISBURY      CLEAR     52  35  52 NW10      29.69R
BAY BRIDGE AP* CLEAR     50  34  53 W20G30    29.73R
CAMBRIDGE*     CLEAR     54  34  47 NW18G31   29.70R
EASTON*        CLEAR     54  39  58 NW17G25   29.75R

$$

MDZ017>025-231200-
SOUTHERN MARYLAND

CITY           SKY/WX    TMP DP  RH WIND       PRES   REMARKS
PATUXENT RIVER PTCLDY    52  35  52 NW24G36   29.70R
ST INIGOES     CLEAR     52  32  46 NW12G24   29.71R
LEONARDTOWN*   CLEAR     50  32  50 NW13G21   29.73R

$$

MDZ003>005-231200-
NORTH CENTRAL MARYLAND

CITY           SKY/WX    TMP DP  RH WIND       PRES   REMARKS
FREDERICK*     CLEAR     46  36  66 NW7G17    29.79R
HAGERSTOWN APT CLOUDY    45  31  58 NW10      29.78R
WESTMINSTER*   CLEAR     45  34  65 NW14G21   29.73R

$$

MDZ501>502-231200-
WESTERN MARYLAND

CITY           SKY/WX    TMP DP  RH WIND       PRES   REMARKS
OAKLAND*       CLOUDY    32  28  86 W15G23    29.79R WCI  22
CUMBERLAND*    CLOUDY    45  30  57 NW5G23    29.87R

$$

VAZ025>031-231200-
SHENANDOAH VALLEY

CITY           SKY/WX    TMP DP  RH WIND       PRES   REMARKS
WINCHESTER*    CLOUDY    46  32  57 NW13G22   29.80R
STAUNTON*      PTCLDY    48  27  44 NW14G20   29.81R

$$

WVZ021-048>050-054>055-231200-
EASTERN WEST VIRGINIA PANHANDLE

CITY           SKY/WX    TMP DP  RH WIND       PRES   REMARKS
MARTINSBURG    CLOUDY    47  31  53 NW15      29.80R
PETERSBURG*    PTCLDY    51  35  54 NW13G22   29.84R

$$

VAZ036>039-050-231200-
CENTRAL FOOTHILLS

CITY           SKY/WX    TMP DP  RH WIND       PRES   REMARKS
CHARLOTTESVILL MOCLDY    51  34  52 NW5       29.78R
CULPEPER*      CLEAR     52  30  43 NW5       29.79R

$$

VAZ055>057-231200-
NORTH AND CENTRAL PIEDMONT

CITY           SKY/WX    TMP DP  RH WIND       PRES   REMARKS
FREDERICKSBRG* CLEAR     53  33  47 N10G25    29.78R
STAFFORD*      CLEAR     51  34  52 N7        29.83R

$$

NCZ024-NYZ072-PAZ021-071-VAZ022-071-231200-
OTHER REGIONAL OBSERVATIONS

CITY           SKY/WX    TMP DP  RH WIND       PRES   REMARKS
NEW YORK CITY  CLOUDY    50  34  54 VRB5G16   29.59R
PHILADELPHIA   PTCLDY    49  32  52 NW14      29.67R
PITTSBURGH     CLOUDY    40  32  73 NW22G28   29.89R
ROANOKE        PTCLDY    49  31  49 NW10      29.85R
RICHMOND       CLEAR     52  37  56 N8        29.74R
RALEIGH        PTCLDY    58  41  53 CALM      29.76R

$$

ANZ530>537-231200-
MARINE OBSERVATIONS

STATION/POSITION TIME  TEMP    WIND        PRES
                       AIR SEA DIR/SP/G
                 (UTC) (F)     (DEG/KT/KT) (MB)
THOMAS PT LIGHT  1100   51 53  300/ 20/ 23 1007.5R
BALT KEY BRIDGE  1100   50     260/ 12/ 14 1007.2R
COVE POINT       1100   53     340/ 33/ 41 1005.2S
LEWISETTA        1100   54 57  340/ 10/ 16 1006.2R
SOLOMONS ISLAND  1100      55                N/A
PINEY POINT      1100          350/ 20/ 23   N/A

$$




USA.gov is the U.S. government's official web portal to all federal, state and local government web resources and services.